[[{"header":{"parameterUnit":"m.s-1","parameterCategory":1,"la1":30.2991,"la2":30.254,"lo1":-89.0895,"lo2":-89.0444,"dy":0.0017,"dx":0.0017,"nx":28,"ny":28,"refTime":"2023-04-06T21:00:00:Z","depth":0,"parameterNumber":2,"parameterNumberName":"U-component_of_WINDS"},"data":[0,0,0,0,0,0,0,0,0,0,0,0,0,0,0,0,0,0,0,0,0,0,0,0,0,0,0,0,0,0,0,0,0,0,0,0,0,0,0,0,0,0,0,0,0,0,0,0,0,0,0,0,0,0,0,0,0,0,-2.6427,-2.6427,0,-2.645,-2.645,-2.6451,-2.6395,-2.6393,-2.6391,-2.6389,-2.6416,-2.6418,-2.642,0,0,0,0,0,0,0,0,0,0,0,0,0,-2.6338,-2.634,-2.6427,-2.6427,-2.6428,-2.645,-2.645,-2.6451,-2.6395,-2.6393,-2.6391,-2.6389,-2.6415,-2.6418,-2.642,0,0,0,0,0,0,0,0,0,0,0,0,0,-2.6371,-2.6341,-2.6427,-2.6402,-2.64,-2.645,-2.645,-2.6451,-2.6395,-2.6393,-2.639,-2.6388,-2.6414,-2.6417,-2.6421,-2.6496,0,0,-2.6432,-2.6433,0,0,0,0,0,0,0,0,-2.6369,-2.6374,-2.6406,-2.6404,-2.6402,-2.6417,-2.6428,-2.6466,-2.6396,-2.6397,-2.6389,-2.6386,-2.6418,-2.6421,-2.6432,-2.6497,-2.6498,-2.6432,-2.6434,-2.6436,-2.6437,0,0,0,0,0,0,0,-2.6367,-2.6373,-2.6436,-2.6406,-2.6404,-2.6391,-2.6393,-2.6435,-2.6423,-2.6397,-2.6393,-2.6396,-2.6417,-2.6428,-2.6432,-2.6499,-2.6432,-2.6435,-2.6437,-2.6438,-2.6628,-2.6631,0,0,0,0,0,0,-2.6367,-2.6371,-2.6435,-2.6437,-2.6378,-2.6395,-2.6397,-2.6415,-2.6422,-2.642,-2.6399,-2.6394,-2.6424,-2.6428,-2.6432,-2.6521,-2.6436,-2.6439,-2.6441,-2.6625,-2.6629,-2.6632,0,0,0,0,0,0,-2.6365,-2.6373,-2.6435,-2.6403,-2.641,-2.6399,-2.642,-2.6417,-2.6428,-2.6423,-2.6421,-2.6412,-2.6422,-2.6427,-2.6481,-2.6521,-2.644,-2.6444,-2.6622,-2.6626,-2.663,-2.6699,0,0,0,0,0,0,-2.6363,-2.6373,-2.6401,-2.6404,-2.6412,-2.6481,-2.6422,-2.6419,-2.6434,-2.6428,-2.6435,-2.6434,-2.642,-2.6476,-2.6484,-2.6524,-2.6446,-2.6618,-2.6624,-2.6629,-2.6693,-2.6705,-2.6715,0,0,0,0,0,-2.636,-2.6419,-2.6402,-2.641,-2.6446,-2.6484,-2.6488,-2.647,-2.6437,-2.6465,-2.6463,-2.6434,-2.6516,-2.6481,-2.6491,-2.6533,-2.6615,-2.6622,-2.6628,-2.6688,-2.6702,-2.6715,0,0,0,0,0,0,-2.6422,-2.6419,-2.64,-2.6462,-2.6474,-2.6474,-2.6509,-2.6486,-2.6507,-2.6501,-2.6478,-2.648,-2.6538,-2.6541,-2.6503,-2.6606,-2.656,-2.6569,-2.6602,-2.6616,-2.6627,-2.6625,-2.6449,0,0,0,0,0,-2.6442,-2.6473,-2.6469,-2.6524,-2.6531,-2.6519,-2.6535,-2.652,-2.6531,-2.6536,-2.6537,-2.655,-2.6578,-2.6597,-2.6623,-2.6693,-2.6695,-2.6727,-2.6738,-2.6747,-2.6755,-2.6793,-2.6807,-2.6653,-2.6653,-2.6653,0,0,-2.6486,-2.6488,-2.6509,-2.6537,-2.6544,-2.6577,-2.6524,-2.656,-2.6585,-2.6542,-2.6591,-2.6593,-2.6606,-2.6668,-2.6695,-2.6672,-2.6798,-2.6756,-2.6763,-2.6766,-2.6801,-2.6816,-2.6829,-2.6658,-2.6657,-2.6656,0,0,-2.6581,-2.6586,-2.6632,-2.664,-2.6651,-2.6643,-2.6655,-2.6659,-2.6658,-2.6708,-2.6677,-2.6706,-2.6755,-2.6766,-2.6778,-2.6879,-2.6853,-2.6888,-2.6946,-2.6984,-2.6996,-2.7006,-2.7042,-2.7055,-2.6896,-2.6896,-2.6896,0,-2.6633,-2.668,-2.6659,-2.6698,-2.6712,-2.6674,-2.6722,-2.6731,-2.6751,-2.6761,-2.6735,-2.6797,-2.6803,-2.6867,-2.6892,-2.6903,-2.6915,-2.6886,-2.6995,-2.7006,-2.7016,-2.705,-2.7063,-2.69,-2.69,-2.6899,-2.6899,0,-2.6744,-2.6778,-2.6814,-2.6833,-2.6851,-2.6894,-2.6881,-2.6902,-2.6886,-2.6881,-2.6933,-2.6939,-2.6965,-2.698,-2.6965,-2.7042,-2.7028,-2.6999,-2.6952,-2.7035,-2.7066,-2.7079,-2.6906,-2.6905,-2.6903,-2.6902,0,0,-2.6878,-2.6885,-2.6899,-2.6907,-2.6917,-2.6943,-2.6986,-2.7011,-2.7029,-2.7045,-2.708,-2.7123,-2.7097,-2.7111,-2.7097,-2.7129,-2.7209,-2.7097,-2.7097,-2.7117,-2.7296,-2.7316,-2.7332,-2.7193,-2.7195,-2.7197,-2.7294,0,-2.6971,-2.7042,-2.7025,-2.7096,-2.7127,-2.7093,-2.7129,-2.714,-2.7138,-2.7164,-2.7162,-2.7193,-2.7155,-2.7164,-2.7194,-2.7193,-2.7245,-2.7186,-2.7226,-2.7228,-2.7223,-2.7348,-2.737,-2.7461,-2.7307,-2.7309,-2.731,0,-2.709,-2.7109,-2.7183,-2.7188,-2.7201,-2.7234,-2.7256,-2.7282,-2.7294,-2.729,-2.7306,-2.7286,-2.7329,-2.7283,-2.7342,-2.7302,-2.7318,-2.732,-2.7323,-2.7325,-2.7273,-2.7354,-2.749,-2.7503,-2.7329,-2.7328,-2.7327,0,-2.7179,-2.7224,-2.7274,-2.7282,-2.729,-2.7314,-2.7319,-2.7329,-2.7345,-2.7366,-2.7376,-2.7402,-2.7416,-2.7436,-2.7424,-2.7391,-2.7486,-2.7438,-2.7484,-2.7484,-2.7505,-2.7503,-2.7645,-2.7516,-2.7516,-2.7516,-2.7516,0,-2.7285,-2.7332,-2.7314,-2.7345,-2.7396,-2.7377,-2.7429,-2.7429,-2.7439,-2.747,-2.7442,-2.7472,-2.7454,-2.7484,-2.7475,-2.7525,-2.7532,-2.753,-2.7527,-2.7532,-2.7532,-2.7542,-2.7535,-2.7519,-2.7519,-2.7518,-2.7517,0,-2.7393,-2.7383,-2.7435,-2.7439,-2.7441,-2.7479,-2.7482,-2.7511,-2.7507,-2.7547,-2.7555,-2.7548,-2.7581,-2.7571,-2.7607,-2.7601,-2.7665,-2.7655,-2.7661,-2.7658,-2.7704,-2.77,-2.7856,-2.7875,-2.7735,-2.7736,-2.7737,0,-2.7461,-2.7496,-2.7504,-2.7522,-2.7528,-2.7558,-2.7575,-2.7559,-2.7577,-2.7595,-2.7622,-2.7652,-2.7675,-2.773,-2.7729,-2.7756,-2.7746,-2.7798,-2.7749,-2.7754,-2.7746,-2.7744,-2.7747,-2.7808,-2.781,-2.7811,-2.7812,0,-2.7583,-2.7576,-2.7601,-2.7625,-2.7645,-2.7663,-2.7679,-2.7696,-2.768,-2.7703,-2.7736,-2.7754,-2.779,-2.7821,-2.7846,-2.7852,-2.783,-2.7828,-2.7839,-2.7844,-2.7846,-2.7846,-2.7687,-2.7824,-2.7823,-2.7822,-2.7821,-2.7821,-2.7673,-2.7702,-2.7712,-2.7741,-2.7751,-2.7766,-2.7793,-2.7793,-2.7819,-2.7847,-2.7836,-2.7874,-2.7886,-2.7918,-2.7927,-2.7957,-2.7937,-2.7955,-2.7959,-2.7963,-2.7969,-2.7842,-2.7962,-2.7962,-2.7961,-2.7961,-2.7961,0,-2.7792,-2.7797,-2.7824,-2.7846,-2.7869,-2.7846,-2.7862,-2.7883,-2.7917,-2.793,-2.7953,-2.7991,-2.8021,-2.8023,-2.8051,-2.8075,-2.8066,-2.8083,-2.8081,-2.8083,-2.7985,-2.7972,-2.809,-2.809,-2.809,-2.809,-2.809,-2.809,-2.7857,-2.7906,-2.7901,-2.7954,-2.7959,-2.7995,-2.8007,-2.8021,-2.8031,-2.8075,-2.8099,-2.81,-2.8109,-2.8138,-2.8165,-2.8165,-2.8176,-2.8198,-2.8194,-2.8103,-2.809,-2.8077,-2.8064,-2.82,-2.8201,-2.8288,-2.8289,-2.829]},{"header":{"parameterUnit":"m.s-1","parameterCategory":1,"la1":30.2991,"la2":30.254,"lo1":-89.0895,"lo2":-89.0444,"dy":0.0017,"dx":0.0017,"nx":28,"ny":28,"refTime":"2023-04-06T21:00:00:Z","depth":0,"parameterNumber":3,"parameterNumberName":"V-component_of_WINDS"},"data":[0,0,0,0,0,0,0,0,0,0,0,0,0,0,0,0,0,0,0,0,0,0,0,0,0,0,0,0,0,0,0,0,0,0,0,0,0,0,0,0,0,0,0,0,0,0,0,0,0,0,0,0,0,0,0,0,0,0,-0.0388,-0.0387,0,-0.0324,-0.0323,-0.0322,-0.0282,-0.0282,-0.0281,-0.0281,-0.0215,-0.0214,-0.0212,0,0,0,0,0,0,0,0,0,0,0,0,0,-0.0471,-0.047,-0.0388,-0.0387,-0.0386,-0.0324,-0.0323,-0.0322,-0.0282,-0.0282,-0.0281,-0.0281,-0.0216,-0.0214,-0.0212,0,0,0,0,0,0,0,0,0,0,0,0,0,-0.0424,-0.047,-0.0388,-0.0358,-0.0355,-0.0324,-0.0323,-0.0322,-0.0282,-0.0282,-0.0281,-0.0281,-0.0216,-0.0214,-0.0212,-0.0205,0,0,-0.0205,-0.0204,0,0,0,0,0,0,0,0,-0.0427,-0.0421,-0.0363,-0.036,-0.0357,-0.031,-0.0328,-0.0283,-0.0282,-0.031,-0.0281,-0.0281,-0.0247,-0.0242,-0.0231,-0.0202,-0.0199,-0.0205,-0.0203,-0.0202,-0.0201,0,0,0,0,0,0,0,-0.043,-0.0423,-0.0362,-0.0363,-0.0358,-0.0347,-0.034,-0.0319,-0.0281,-0.0307,-0.0304,-0.0297,-0.0245,-0.0233,-0.0229,-0.0198,-0.0205,-0.0203,-0.0201,-0.02,-0.0156,-0.0156,0,0,0,0,0,0,-0.0438,-0.0426,-0.0364,-0.036,-0.0392,-0.0346,-0.0338,-0.0326,-0.0281,-0.0274,-0.0298,-0.0296,-0.0237,-0.0232,-0.0227,-0.0214,-0.0202,-0.02,-0.0199,-0.0156,-0.0156,-0.0156,0,0,0,0,0,0,-0.044,-0.0433,-0.0367,-0.0393,-0.0383,-0.0345,-0.0331,-0.0325,-0.0313,-0.0274,-0.0267,-0.0293,-0.0237,-0.023,-0.021,-0.0211,-0.0199,-0.0197,-0.0156,-0.0156,-0.0156,-0.0189,0,0,0,0,0,0,-0.0443,-0.0434,-0.0432,-0.0393,-0.0382,-0.0352,-0.0331,-0.0324,-0.0309,-0.0306,-0.0268,-0.0261,-0.0236,-0.0213,-0.0208,-0.0208,-0.0195,-0.0155,-0.0156,-0.0156,-0.0188,-0.0191,-0.0193,0,0,0,0,0,-0.0446,-0.0444,-0.0432,-0.0425,-0.0379,-0.0353,-0.0346,-0.0318,-0.0309,-0.0306,-0.0281,-0.0262,-0.0212,-0.0212,-0.0205,-0.0204,-0.0155,-0.0156,-0.0156,-0.0187,-0.019,-0.0193,0,0,0,0,0,0,-0.0486,-0.0439,-0.0425,-0.0411,-0.0386,-0.0346,-0.0341,-0.0323,-0.03,-0.0298,-0.0263,-0.0255,-0.0238,-0.0219,-0.022,-0.0193,-0.0181,-0.018,-0.0207,-0.021,-0.0212,-0.0217,-0.0193,0,0,0,0,0,-0.0492,-0.0476,-0.0435,-0.0427,-0.0415,-0.038,-0.0368,-0.0348,-0.032,-0.031,-0.0283,-0.0257,-0.0234,-0.0221,-0.0199,-0.0184,-0.0174,-0.018,-0.0183,-0.0185,-0.0185,-0.0173,-0.0175,-0.0158,-0.0158,-0.0158,0,0,-0.0507,-0.0479,-0.0471,-0.0434,-0.0412,-0.0394,-0.0372,-0.0355,-0.034,-0.0307,-0.0286,-0.0265,-0.0233,-0.0215,-0.0206,-0.0199,-0.0187,-0.0186,-0.0188,-0.0186,-0.0174,-0.0175,-0.0177,-0.0158,-0.0158,-0.0158,0,0,-0.0524,-0.0502,-0.0492,-0.047,-0.0437,-0.0413,-0.041,-0.0372,-0.0357,-0.0335,-0.0309,-0.0291,-0.0254,-0.0232,-0.0216,-0.0221,-0.0202,-0.0214,-0.0228,-0.0217,-0.0218,-0.0219,-0.022,-0.022,-0.0214,-0.0214,-0.0214,0,-0.0547,-0.052,-0.0489,-0.0472,-0.0455,-0.0423,-0.0411,-0.0391,-0.0353,-0.0342,-0.0334,-0.0285,-0.0261,-0.0237,-0.0238,-0.0226,-0.0221,-0.0219,-0.0221,-0.0221,-0.0222,-0.0222,-0.0222,-0.0216,-0.0215,-0.0215,-0.0215,0,-0.0548,-0.0529,-0.0524,-0.0487,-0.0469,-0.0455,-0.0421,-0.0407,-0.0387,-0.0364,-0.0341,-0.0311,-0.0281,-0.0273,-0.0255,-0.0245,-0.0241,-0.0227,-0.0214,-0.0226,-0.0225,-0.0225,-0.0218,-0.0217,-0.0217,-0.0216,0,0,-0.0591,-0.0534,-0.0533,-0.0514,-0.0474,-0.0458,-0.0441,-0.0411,-0.0399,-0.0373,-0.0357,-0.0325,-0.0311,-0.0293,-0.0271,-0.0261,-0.0264,-0.0248,-0.0247,-0.0252,-0.025,-0.026,-0.0261,-0.0251,-0.0251,-0.0251,-0.0252,0,-0.0601,-0.057,-0.054,-0.0519,-0.05,-0.0468,-0.0452,-0.0425,-0.0402,-0.0381,-0.0355,-0.0333,-0.0317,-0.0305,-0.0294,-0.0267,-0.0264,-0.0266,-0.0235,-0.0234,-0.0244,-0.026,-0.0272,-0.0274,-0.0252,-0.0252,-0.0251,0,-0.0611,-0.0585,-0.0562,-0.0521,-0.0511,-0.0499,-0.0467,-0.0448,-0.0416,-0.0399,-0.0377,-0.0353,-0.0332,-0.032,-0.0289,-0.0291,-0.0276,-0.026,-0.0259,-0.0256,-0.0244,-0.0257,-0.0275,-0.0275,-0.0251,-0.0251,-0.0251,0,-0.0643,-0.0602,-0.0583,-0.0568,-0.052,-0.0511,-0.049,-0.0457,-0.044,-0.0412,-0.04,-0.037,-0.0354,-0.033,-0.0298,-0.0293,-0.027,-0.0256,-0.0254,-0.0255,-0.0252,-0.0253,-0.0267,-0.0243,-0.0243,-0.0243,-0.0243,0,-0.0659,-0.0646,-0.0596,-0.0584,-0.0568,-0.0532,-0.0516,-0.0492,-0.0463,-0.0444,-0.0414,-0.0397,-0.0355,-0.0333,-0.0307,-0.0284,-0.0277,-0.0262,-0.0256,-0.0265,-0.0267,-0.0255,-0.0254,-0.0243,-0.0243,-0.0243,-0.0243,0,-0.0693,-0.0659,-0.0635,-0.0591,-0.0579,-0.0569,-0.053,-0.0516,-0.0489,-0.0466,-0.0459,-0.0418,-0.0389,-0.0354,-0.0315,-0.0298,-0.0277,-0.0267,-0.0288,-0.0284,-0.0284,-0.0284,-0.0292,-0.029,-0.0267,-0.0268,-0.0268,0,-0.0705,-0.0694,-0.0647,-0.0633,-0.0613,-0.059,-0.0571,-0.0535,-0.0517,-0.0477,-0.0467,-0.0436,-0.041,-0.0366,-0.0332,-0.03,-0.0289,-0.0294,-0.0285,-0.0293,-0.0288,-0.0289,-0.0287,-0.0297,-0.0297,-0.0298,-0.0298,0,-0.073,-0.0713,-0.0688,-0.0657,-0.0636,-0.0609,-0.0582,-0.0571,-0.0528,-0.0509,-0.048,-0.0459,-0.0417,-0.0386,-0.035,-0.0328,-0.0305,-0.0301,-0.0298,-0.0308,-0.032,-0.0312,-0.0294,-0.0301,-0.0301,-0.0301,-0.03,-0.03,-0.0753,-0.074,-0.0705,-0.0677,-0.0652,-0.0626,-0.061,-0.0581,-0.0556,-0.0519,-0.0498,-0.0469,-0.0433,-0.0382,-0.036,-0.0335,-0.0327,-0.0324,-0.0324,-0.0323,-0.0326,-0.0324,-0.0328,-0.0328,-0.0328,-0.0328,-0.0328,0,-0.0775,-0.075,-0.0725,-0.0686,-0.0664,-0.0644,-0.0611,-0.0594,-0.0568,-0.0537,-0.051,-0.0475,-0.0444,-0.0406,-0.0372,-0.0359,-0.0348,-0.0351,-0.0352,-0.0346,-0.0335,-0.034,-0.0361,-0.0361,-0.0361,-0.0361,-0.0361,-0.0361,-0.0784,-0.0762,-0.074,-0.0703,-0.0678,-0.0649,-0.0631,-0.0606,-0.0581,-0.0542,-0.0516,-0.0492,-0.0457,-0.0419,-0.0389,-0.0379,-0.0367,-0.0374,-0.036,-0.0351,-0.0348,-0.0345,-0.0349,-0.0372,-0.0372,-0.0373,-0.0373,-0.0373]}]]